Weather reports worldwide

Advertisment
Altnaharra, United Kingdom (3044): temperature & dewpoint: 17.03.2019 09:00:00 - 23.03.2019 09:00:00 (GMT)Altnaharra, United Kingdom (3044): temperature -20cm & temperature -100cm: 17.03.2019 09:00:00 - 23.03.2019 09:00:00 (GMT)Altnaharra, United Kingdom (3044): wind speed & gusts: 17.03.2019 09:00:00 - 23.03.2019 09:00:00 (GMT)Altnaharra, United Kingdom (3044): wind direction: 17.03.2019 09:00:00 - 23.03.2019 09:00:00 (GMT)Altnaharra, United Kingdom (3044): reduced air pressure: 17.03.2019 09:00:00 - 23.03.2019 09:00:00 (GMT)Altnaharra, United Kingdom (3044): visibility: 17.03.2019 09:00:00 - 23.03.2019 09:00:00 (GMT)Altnaharra, United Kingdom (3044): sunshine duration: 17.03.2019 09:00:00 - 23.03.2019 09:00:00 (GMT)Altnaharra, United Kingdom (3044): precipitation: 17.03.2019 09:00:00 - 23.03.2019 09:00:00 (GMT)
Date & Time tt [°C] td [°C] tt -20cm [°C] tt -100cm [°C] ff [km/h] ff [kn] fx [km/h] fx [kn] dd ppp [hPa] vv [km] sd [min] rr [mm]
23.03.2019 09:00:00 4,5 0,8 6,7 6,0 31 17 68 37 WSW 1023,8 12 48 0,0
23.03.2019 08:00:00 4,5 -0,4 - - 29 16 63 34 SW 1022,2 15 54 0,0
23.03.2019 07:00:00 2,8 0,5 - - 34 18 74 40 SW 1021,5 12 0 0,4
23.03.2019 06:00:00 3,7 -1,0 - - 44 24 68 37 WSW 1020,1 22 0 0,0
23.03.2019 05:00:00 3,0 0,1 - - 34 18 67 36 SW 1019,6 35 0 0,6
23.03.2019 04:00:00 3,2 0,2 - - 39 21 76 41 SW 1018,9 3,6 0 0,0
23.03.2019 03:00:00 4,0 -1,4 - - 31 17 67 36 SW 1018,2 35 0 0,2
23.03.2019 02:00:00 4,4 -2,0 - - 31 17 57 31 SW 1017,3 29 0 0,0
23.03.2019 01:00:00 3,4 -0,9 - - 26 14 57 31 SW 1017,2 19 0 0,0
23.03.2019 00:00:00 3,4 -1,9 - - 28 15 67 36 SW 1016,7 21 - 0,0
22.03.2019 23:00:00 3,0 -0,1 - - 21 11 52 28 SSW 1016,0 35 0 0,2
22.03.2019 22:00:00 2,4 0,1 - - 28 15 70 38 SW 1015,9 6 0 0,4
22.03.2019 21:00:00 4,0 -1,6 - - 28 15 67 36 SW 1014,3 50 0 0,2
22.03.2019 20:00:00 4,8 -1,2 - - 26 14 65 35 SW 1013,2 18 0 0,0
22.03.2019 19:00:00 5,4 -2,3 - - 31 17 68 37 SW 1012,6 23 0 0,0
22.03.2019 18:00:00 4,9 0,3 - - 31 17 61 33 SW 1012,1 16 6 0,6
22.03.2019 17:00:00 4,8 2,1 - - 35 19 70 38 SW 1011,1 15 30 0,2
22.03.2019 16:00:00 8,3 -0,6 - - 29 16 59 32 SW 1010,3 30 36 0,0
22.03.2019 15:00:00 8,5 1,1 - - 34 18 57 31 SW 1010,0 23 54 0,0
22.03.2019 14:00:00 9,2 3,3 - - 28 15 65 35 SW 1009,4 16 48 0,0
22.03.2019 13:00:00 9,8 4,6 - - 24 13 57 31 SSW 1009,0 27 30 0,2
22.03.2019 12:00:00 9,1 5,9 - - 21 11 - - SSW 1008,8 17 0 0,0
22.03.2019 11:00:00 8,5 4,9 - - 24 13 59 32 SW 1008,6 30 0 0,6
22.03.2019 10:00:00 10,2 8,6 - - 18 10 46 25 S 1007,4 10 0 0,6
22.03.2019 09:00:00 10,1 7,4 6,9 6,0 26 14 46 25 S 1007,7 14 0 0,2
22.03.2019 08:00:00 10,4 6,4 - - 34 18 55 30 SSE 1007,9 50 0 0,0
22.03.2019 07:00:00 11,0 5,6 - - 37 20 61 33 SE 1008,3 45 0 0,0
22.03.2019 06:00:00 11,1 5,4 - - 37 20 54 29 SE 1009,4 45 0 0,0
22.03.2019 05:00:00 9,7 5,5 - - 34 18 48 26 SSE 1010,3 40 0 0,0
22.03.2019 04:00:00 8,9 4,9 - - 16 9 52 28 SSE 1011,7 20 0 0,0
22.03.2019 03:00:00 10,3 5,0 - - 35 19 57 31 SSE 1012,6 14 0 0,0
22.03.2019 02:00:00 11,0 6,1 - - 29 16 - - SSE 1013,9 21 0 0,0
22.03.2019 01:00:00 11,4 6,9 - - 29 16 52 28 SSE 1015,1 35 0 0,0
22.03.2019 00:00:00 10,8 7,2 - - 28 15 63 34 SSE 1017,1 50 - 0,0
21.03.2019 23:00:00 11,1 7,1 - - 34 18 57 31 SE 1018,2 50 0 0,0
21.03.2019 22:00:00 10,6 6,0 - - 13 7 - - SSE 1019,9 50 0 0,0
21.03.2019 21:00:00 10,4 5,9 - - 18 10 - - SE 1021,8 50 0 0,0
21.03.2019 20:00:00 9,3 6,2 - - 15 8 - - NE 1022,9 50 0 0,0
21.03.2019 19:00:00 8,9 4,9 - - 13 7 - - E 1024,4 50 0 0,0
21.03.2019 18:00:00 9,6 5,3 - - 11 6 - - E 1024,9 50 0 0,0
21.03.2019 17:00:00 10,2 2,7 - - 4 2 - - S 1025,4 50 0 0,0
21.03.2019 16:00:00 11,2 3,1 - - 9 5 - - SW 1026,1 40 60 0,0
21.03.2019 15:00:00 11,6 3,4 - - 16 9 - - WSW 1027,4 27 24 0,0
21.03.2019 14:00:00 11,6 2,4 - - 11 6 - - SSW 1026,9 - 0 0,0
21.03.2019 13:00:00 11,2 3,2 - - 15 8 - - SSW 1027,0 - 0 0,0
21.03.2019 12:00:00 10,6 6,0 - - 18 10 - - S 1026,4 - 0 0,0
21.03.2019 11:00:00 9,3 5,2 - - 11 6 - - S 1026,4 - 6 0,0
21.03.2019 10:00:00 8,6 3,8 - - 5 3 - - SW 1025,9 30 36 0,0
21.03.2019 09:00:00 6,9 4,7 6,4 5,9 5 3 - - SSE 1025,4 45 0 0,0
21.03.2019 08:00:00 6,1 5,0 - - 5 3 - - WNW 1024,7 35 0 0,0
21.03.2019 07:00:00 6,0 5,4 - - 8 4 - - W 1023,3 24 0 0,4
21.03.2019 06:00:00 6,6 6,0 - - 9 5 - - W 1021,5 15 0 0,8
21.03.2019 05:00:00 7,7 6,8 - - 11 6 - - WSW 1020,0 10 0 0,2
21.03.2019 04:00:00 8,3 7,1 - - 21 11 - - W 1018,6 16 0 0,4
21.03.2019 03:00:00 10,3 8,6 - - 18 10 - - SW 1017,3 10 0 0,4
21.03.2019 02:00:00 10,4 8,7 - - 18 10 - - SSW 1016,8 17 0 0,6
21.03.2019 01:00:00 10,7 8,9 - - 24 13 50 27 SSW 1016,6 9 0 0,0
21.03.2019 00:00:00 10,9 9,0 - - 24 13 48 26 SSW 1016,3 10 - 0,2
20.03.2019 23:00:00 10,9 9,1 - - 22 12 54 29 SSW 1015,9 9 0 0,2
20.03.2019 22:00:00 10,8 8,9 - - 22 12 - - S 1015,6 9 0 0,0
20.03.2019 21:00:00 10,6 9,0 - - 22 12 46 25 S 1015,2 12 0 0,2
20.03.2019 20:00:00 10,5 8,4 - - 29 16 59 32 S 1014,9 9 0 0,0
20.03.2019 19:00:00 11,3 7,7 - - 29 16 57 31 SSW 1014,8 35 0 0,0
20.03.2019 18:00:00 12,7 9,0 - - 34 18 57 31 S 1014,6 50 0 0,2
20.03.2019 17:00:00 12,5 9,9 - - 29 16 57 31 S 1015,1 18 0 0,0
20.03.2019 16:00:00 12,6 8,8 - - 31 17 65 35 S 1015,9 25 0 0,0
20.03.2019 15:00:00 12,9 7,8 - - 22 12 - - S 1016,5 50 18 0,0
20.03.2019 14:00:00 11,7 6,7 - - 22 12 - - SSE 1017,9 45 0 0,0
20.03.2019 13:00:00 11,2 4,1 - - 22 12 - - SSE 1019,4 40 0 0,0
20.03.2019 12:00:00 10,7 3,3 - - 18 10 - - S 1020,3 23 42 0,0
20.03.2019 11:00:00 10,5 3,0 - - 26 14 48 26 S 1020,7 13 60 0,0
20.03.2019 10:00:00 9,3 2,8 - - 18 10 - - S 1021,1 18 24 0,0
20.03.2019 09:00:00 8,2 2,6 5,7 5,7 16 9 - - SSW 1021,4 16 0 0,0
20.03.2019 08:00:00 7,5 3,0 - - 13 7 - - SSW 1021,5 13 0 0,0
20.03.2019 07:00:00 7,5 3,1 - - 13 7 - - SSW 1021,0 13 0 0,0
20.03.2019 06:00:00 7,1 3,0 - - 9 5 - - SSW 1020,7 11 0 0,0
20.03.2019 05:00:00 6,7 2,6 - - 13 7 - - S 1020,3 14 0 0,0
20.03.2019 04:00:00 7,2 2,6 - - 16 9 - - SSW 1019,7 13 0 0,0
20.03.2019 03:00:00 7,3 2,3 - - 24 13 - - SW 1019,4 15 0 0,0
20.03.2019 02:00:00 7,4 2,6 - - 28 15 - - SW 1018,9 14 0 0,0
20.03.2019 01:00:00 8,1 4,5 - - 26 14 - - WSW 1019,4 15 0 0,0
20.03.2019 00:00:00 7,9 4,3 - - 22 12 48 26 WSW 1019,0 12 - 0,0
19.03.2019 23:00:00 8,0 2,6 - - 26 14 - - WSW 1018,9 13 0 0,0
19.03.2019 22:00:00 8,1 3,2 - - 22 12 - - WSW 1018,5 14 0 0,0
19.03.2019 21:00:00 8,4 4,2 - - 21 11 - - WSW 1017,8 14 0 0,0
19.03.2019 20:00:00 8,6 4,3 - - 15 8 - - WSW 1017,4 18 0 0,0
19.03.2019 19:00:00 8,9 5,3 - - 21 11 - - W 1016,4 25 0 0,0
19.03.2019 18:00:00 9,6 6,0 - - 13 7 - - SW 1015,8 40 0 0,0
19.03.2019 17:00:00 10,3 6,6 - - 21 11 - - SW 1015,1 45 6 0,0
19.03.2019 16:00:00 10,4 7,8 - - 13 7 - - SSW 1014,3 35 0 0,0
19.03.2019 15:00:00 10,7 7,9 - - 22 12 - - SW 1014,4 19 12 0,0
19.03.2019 14:00:00 11,4 7,5 - - 18 10 46 25 SW 1014,3 50 0 0,0
19.03.2019 13:00:00 10,5 8,0 - - 31 17 54 29 S 1013,5 40 42 0,0
19.03.2019 12:00:00 11,1 7,1 - - 21 11 - - SSW 1012,5 50 0 0,0
19.03.2019 11:00:00 9,4 6,4 - - 15 8 - - S 1013,2 50 0 0,0
19.03.2019 10:00:00 9,1 5,7 - - 13 7 - - S 1014,0 40 0 0,0
19.03.2019 09:00:00 8,0 5,0 5,2 5,7 13 7 - - ESE 1014,7 50 0 0,0
19.03.2019 08:00:00 7,9 5,1 - - 21 11 - - S 1015,4 15 0 0,0
19.03.2019 07:00:00 7,7 5,2 - - 15 8 - - SSW 1015,4 35 0 0,0
19.03.2019 06:00:00 6,9 5,5 - - 8 4 - - SSE 1015,9 50 0 0,0
19.03.2019 05:00:00 6,6 4,5 - - 11 6 - - S 1016,0 45 0 0,0
19.03.2019 04:00:00 6,9 4,1 - - 13 7 - - S 1016,4 50 0 0,0
19.03.2019 03:00:00 6,9 3,9 - - 9 5 - - S 1016,5 45 0 0,0
19.03.2019 02:00:00 6,8 4,7 - - 15 8 - - S 1017,1 50 0 0,0
19.03.2019 01:00:00 6,6 4,9 - - 13 7 - - S 1017,5 50 0 0,0
19.03.2019 00:00:00 5,8 4,4 - - 13 7 - - S 1017,8 50 - 0,0
18.03.2019 23:00:00 5,5 4,2 - - 13 7 - - S 1017,8 50 0 0,0
18.03.2019 22:00:00 5,9 4,4 - - 15 8 - - S 1017,7 50 0 0,0
18.03.2019 21:00:00 5,9 3,6 - - 15 8 - - S 1017,4 10 0 0,0
18.03.2019 20:00:00 6,5 3,0 - - 9 5 - - S 1017,4 50 0 0,0
18.03.2019 19:00:00 6,0 2,6 - - 8 4 - - S 1016,9 50 0 0,0
18.03.2019 18:00:00 7,9 2,3 - - 8 4 - - S 1016,4 50 0 0,0
18.03.2019 17:00:00 8,5 1,9 - - 8 4 - - SSE 1015,8 50 24 0,0
18.03.2019 16:00:00 9,3 1,1 - - 11 6 - - S 1015,5 35 48 0,0
18.03.2019 15:00:00 9,9 1,6 - - 11 6 - - SE 1015,2 30 36 0,0
18.03.2019 14:00:00 9,1 0,9 - - 8 4 - - S 1015,0 45 30 0,0
18.03.2019 13:00:00 9,0 1,6 - - 11 6 - - S 1014,7 50 48 0,0
18.03.2019 12:00:00 8,0 1,4 - - 13 7 - - S 1014,5 29 54 0,0
18.03.2019 11:00:00 6,6 1,0 - - 13 7 - - S 1014,4 22 60 0,0
18.03.2019 10:00:00 6,4 1,5 - - 11 6 - - S 1014,1 45 60 0,0
18.03.2019 09:00:00 4,4 1,0 5,0 5,7 2 1 - - NNE 1013,5 45 60 0,2
18.03.2019 08:00:00 1,2 0,0 - - 5 3 - - WNW 1013,2 30 30 0,0
18.03.2019 07:00:00 -0,3 -2,1 - - 4 2 - - NE 1012,9 35 0 0,0
18.03.2019 06:00:00 -0,1 -2,0 - - 5 3 - - NW 1012,6 40 0 0,0
18.03.2019 05:00:00 -2,4 -3,3 - - 4 2 - - NW 1012,2 40 0 0,0
18.03.2019 04:00:00 -3,2 -4,1 - - 4 2 - - WNW 1012,3 45 0 0,0
18.03.2019 03:00:00 -2,9 -3,9 - - 4 2 - - WNW 1012,3 35 0 0,0
18.03.2019 02:00:00 -1,8 -3,3 - - 8 4 - - WNW 1012,0 50 0 0,0
18.03.2019 01:00:00 -1,7 -3,7 - - 8 4 - - W 1011,7 45 0 0,0
18.03.2019 00:00:00 -0,5 -2,5 - - 5 3 - - W 1011,5 50 - 0,0
17.03.2019 23:00:00 -0,3 -1,5 - - 8 4 - - W 1011,1 20 0 0,0
17.03.2019 22:00:00 1,2 0,1 - - 8 4 - - W 1010,7 35 0 0,0
17.03.2019 21:00:00 1,0 -0,3 - - 9 5 - - WSW 1010,0 22 0 0,0
17.03.2019 20:00:00 2,2 0,2 - - 15 8 - - NW 1009,3 35 0 0,0
17.03.2019 19:00:00 2,5 -0,3 - - 18 10 - - W 1008,2 35 0 0,0
17.03.2019 18:00:00 3,6 0,0 - - 26 14 46 25 WNW 1007,1 14 24 0,0
17.03.2019 17:00:00 5,9 -1,2 - - 24 13 - - WNW 1005,5 45 36 0,0
17.03.2019 16:00:00 4,4 -0,1 - - 37 20 52 28 WNW 1004,4 45 6 0,0
17.03.2019 15:00:00 4,5 1,6 - - 35 19 59 32 WNW 1003,1 30 12 0,2
17.03.2019 14:00:00 4,8 2,0 - - 22 12 57 31 WNW 1001,7 35 24 0,2
17.03.2019 13:00:00 6,1 3,1 - - 29 16 59 32 WNW 1000,2 24 18 0,2
17.03.2019 12:00:00 4,9 1,3 - - 29 16 55 30 NW 998,6 40 12 0,2
17.03.2019 11:00:00 5,1 2,0 - - 24 13 50 27 NW 996,8 18 0 0,0
17.03.2019 10:00:00 4,8 2,8 - - 21 11 - - WNW 995,3 18 0 0,0
17.03.2019 09:00:00 3,8 2,3 5,0 5,9 15 8 - - WNW 993,2 50 0 2,0

tt = temperature
td = dewpoint
tt -20cm = temperature -20cm
tt -100cm = temperature -100cm
ff = wind speed
fx = gusts
dd = wind direction
ppp = reduced air pressure
vv = visibility
sd = sunshine duration
rr = precipitation

Next stations